User: anonymous   Login
Location: Theydon Bois
(51.6750°N, 0.1050°E)
Time: 21:34:41
(UTC+00:00)
Language:

Cosmos 1500 Rocket - Orbit

View from above orbital plane
View from above orbital plane
View from above satellite
View from above satellite

Ground track
Ground track

The orbit data is extracted from the following two-line orbital elements,

1 14373U 83099B   17345.88245140 +.00000072 +00000-0 +57233-5 0  9993
2 14373 082.5422 078.4930 0020233 004.8005 129.0940 14.83706445826127
Epoch (UTC): 11 December 2017 21:10:43
Eccentricity: 0.0020233
inclination: 82.5422°
perigee height: 603 km
apogee height: 632 km
right ascension of ascending node: 78.4930°
argument of perigee: 4.8005°
revolutions per day: 14.83706445
mean anomaly at epoch: 129.0940°
orbit number at epoch: 82612

The dashed part of the orbit path shows where the satellite is in the earth's shadow,  

DLR